Wind_Speed
8 8 8 8 9 9 9 9 9 10 10 10 10 10 9 8 7 7 6 6 5 4 2 1 1 0 1 1 0 1 1 0 0 0 1 1 2 3 3 2 2 2 2
8 8 7 7 8 8 8 8 8 9 10 9 9 9 9 8 8 7 6 5 5 4 2 2 1 1 2 2 1 2 1 1 1 1 1 1 2 3 4 4 3 3 4
9 9 8 8 8 8 8 7 8 9 9 9 9 8 8 8 7 6 5 4 4 3 2 2 1 1 2 3 2 2 2 2 2 2 2 2 3 4 4 4 4 4 5
10 9 8 8 8 9 9 8 8 8 9 9 8 7 7 7 6 5 5 4 3 3 3 2 2 2 3 3 3 3 3 3 3 3 3 4 4 4 4 4 5 5 6
11 9 8 7 8 9 9 9 9 9 9 8 8 7 6 6 6 5 5 5 4 3 3 3 2 2 3 3 3 4 4 4 4 4 5 5 5 5 5 5 5 6 7
11 10 9 8 8 9 9 9 9 9 10 9 7 7 6 6 6 5 5 5 4 3 3 4 3 3 3 3 4 4 5 5 5 5 6 6 6 6 7 7 6 7 7
12 11 10 9 9 9 9 9 9 9 9 8 7 7 6 6 6 6 6 6 5 4 4 4 5 4 4 4 5 5 6 6 6 6 7 7 8 9 8 9 9 9 9
12 10 11 10 9 10 9 9 9 9 8 7 7 6 5 6 6 6 6 5 5 4 4 5 4 4 4 5 5 6 7 8 8 8 8 8 9 9 10 10 10 11 11
12 11 12 12 11 10 10 9 9 8 8 7 6 6 6 6 6 5 5 4 4 4 4 4 5 5 5 6 7 8 9 8 8 9 9 10 10 11 11 11 11 12 12
15 12 13 13 14 12 10 10 9 9 8 6 6 6 6 6 6 6 5 5 4 4 4 5 5 6 7 7 8 8 8 8 9 10 10 11 11 13 13 13 13 13 13
14 13 13 13 14 12 10 10 10 9 8 7 7 6 7 7 7 6 6 5 5 5 5 6 6 6 7 7 7 8 9 9 10 10 11 11 11 12 12 13 13 13 14
16 15 15 15 13 12 11 11 10 10 9 8 8 7 7 7 7 7 7 6 6 6 6 6 7 7 7 7 8 8 9 10 11 12 12 12 12 13 13 13 14 14 14
17 16 15 14 12 12 11 12 11 11 10 10 9 9 8 8 8 8 8 8 7 7 7 7 7 8 8 8 9 9 10 10 11 12 12 13 14 14 14 15 15 16 16
17 16 16 15 12 11 11 11 11 11 11 11 10 10 10 10 10 9 9 9 9 9 9 9 9 9 9 10 10 10 10 11 12 13 13 13 14 15 15 16 16 16 17
18 17 18 16 14 12 11 11 11 12 12 12 11 11 11 11 11 11 11 11 10 10 10 9 10 10 11 11 11 11 11 12 13 13 14 14 14 15 15 15 16 17 17
19 19 18 16 15 14 12 12 11 12 12 12 13 12 12 12 12 12 12 12 12 12 12 12 11 11 11 12 12 13 13 13 13 14 14 14 15 15 16 16 16 17 17
21 20 19 17 16 16 15 13 13 12 13 13 14 14 14 13 13 13 13 13 13 12 12 12 12 12 12 12 13 14 13 13 13 14 14 14 15 17 17 17 18 19 19
22 21 19 18 17 16 16 15 14 13 14 14 14 14 15 14 13 14 15 15 14 13 13 13 13 13 13 14 14 14 13 13 14 14 15 15 16 17 18 18 19 19 19
22 21 20 19 19 18 17 17 15 15 15 15 15 15 15 15 15 15 15 15 14 13 13 13 14 14 14 14 14 14 14 14 15 15 16 16 17 18 18 19 19 19 20
22 21 21 21 20 19 19 19 17 17 17 17 17 17 16 16 16 16 15 15 14 14 14 14 14 14 14 14 14 14 15 15 15 16 16 17 18 18 19 19 20 20 21
23 22 22 22 21 20 20 20 19 19 19 18 18 18 17 17 16 16 15 15 15 15 15 15 15 14 15 14 15 15 15 16 16 17 17 18 19 20 21 21 22 22 22
24 23 23 22 21 21 21 21 21 21 20 20 20 19 18 18 18 16 16 16 16 16 16 16 15 15 16 16 16 16 16 17 17 18 19 20 21 22 23 23 23 23 24
26 26 24 24 23 22 22 22 22 21 21 21 20 19 19 19 18 18 17 16 17 16 16 16 16 16 17 17 17 17 17 18 20 20 21 22 22 23 23 24 24 25 25
29 27 26 24 23 23 23 22 22 22 22 21 20 20 20 19 18 18 18 18 18 18 18 18 18 18 18 18 19 19 19 20 21 21 22 23 24 24 24 25 26 27 27
30 28 27 25 24 23 23 23 22 22 22 22 22 21 20 20 19 19 19 20 19 19 19 20 20 19 19 20 21 21 21 22 22 22 23 24 25 26 26 27 27 28 28
29 28 27 26 25 25 24 24 23 22 22 22 22 22 21 21 21 20 21 21 21 20 20 20 20 20 21 22 22 22 22 23 24 24 25 26 26 27 27 27 28 28 29
Wind_Direction
342 347 352 356 358 0 4 8 10 10 10 10 8 7 4 3 0 357 2 6 -0 359 1 10 12 55 191 190 211 226 214 128 43 262 328 326 319 321 320 299 296 290 288
326 329 334 338 341 344 348 352 356 358 1 359 359 360 1 360 355 351 352 354 353 356 344 335 330 265 208 220 236 242 229 233 235 256 296 319 317 321 318 307 288 277 283
316 314 318 325 327 328 330 334 344 348 351 351 353 355 358 360 360 359 357 357 357 349 330 312 317 273 250 249 248 244 241 247 254 262 280 299 305 311 313 303 293 280 280
307 306 304 310 315 321 323 329 331 338 344 343 344 350 355 358 1 359 357 350 343 335 310 301 305 275 267 265 253 243 252 262 270 270 281 290 297 296 299 295 288 286 287
301 302 294 301 307 312 318 323 328 328 333 332 334 340 344 351 351 348 345 339 336 330 317 298 293 281 269 273 264 256 265 269 269 271 281 288 288 292 294 294 293 286 285
296 295 291 296 301 302 307 312 318 322 326 329 335 338 338 345 346 342 341 338 330 317 320 295 284 282 271 278 275 267 271 267 267 275 285 287 284 287 287 288 290 287 285
289 289 290 293 295 295 296 303 310 317 321 323 328 334 339 343 345 343 344 338 330 310 303 294 279 273 271 271 276 275 274 273 274 279 284 285 284 284 284 284 284 284 283
281 277 279 282 284 286 290 297 303 310 316 319 324 335 339 340 340 341 343 337 328 316 299 293 282 270 270 270 273 277 277 273 274 277 281 281 285 287 288 286 284 284 284
273 276 276 275 273 276 280 287 291 294 304 310 321 333 336 338 337 333 333 331 323 319 305 298 283 270 276 277 278 279 279 277 277 282 284 282 284 286 288 286 285 286 284
268 275 274 274 277 271 269 278 280 282 288 295 303 315 324 328 332 331 324 319 314 313 307 300 294 284 281 277 279 283 285 281 282 283 283 285 286 286 286 287 288 287 285
269 270 271 272 274 267 262 270 272 274 280 285 291 298 305 313 322 324 317 308 303 303 302 301 297 292 286 284 285 284 283 283 284 285 286 287 288 289 287 286 287 287 287
269 272 273 276 272 263 259 268 272 275 275 276 281 284 290 299 305 309 305 304 301 298 296 299 297 295 297 299 298 292 286 285 284 285 284 285 285 288 287 285 286 286 289
269 271 273 275 271 269 266 264 265 267 270 271 272 276 281 290 296 299 299 300 300 296 293 296 296 293 295 298 296 294 293 290 289 287 287 285 286 288 287 286 287 288 290
264 265 269 270 271 272 271 265 263 267 269 268 269 274 278 283 287 291 292 293 295 294 291 290 291 291 291 292 290 290 293 295 292 293 291 289 289 289 288 287 288 289 291
261 263 267 268 272 272 272 266 261 264 266 267 266 271 275 278 279 284 289 292 291 292 289 289 287 287 288 288 289 289 293 295 294 294 293 291 292 293 292 292 290 291 292
263 266 271 274 274 272 271 269 268 267 268 269 265 266 272 276 276 279 283 288 290 288 287 286 287 289 289 288 290 290 292 295 294 294 293 292 294 293 294 295 295 294 292
260 263 269 271 272 272 271 270 268 270 269 270 268 268 272 274 277 278 281 286 288 287 285 286 288 290 291 291 291 291 293 295 297 297 296 296 298 296 296 295 296 297 293
259 261 263 264 267 268 269 270 270 270 270 269 269 273 273 273 278 279 280 282 283 284 284 284 286 289 290 289 291 296 296 296 297 298 301 301 301 300 300 300 298 296 295
260 261 261 265 265 265 266 267 267 268 270 271 271 273 275 276 278 279 281 280 280 281 284 286 290 293 292 291 291 293 294 294 296 297 300 302 303 304 304 304 303 301 298
258 261 261 263 263 264 264 263 263 267 269 271 274 275 276 279 279 278 278 277 277 281 284 287 291 295 296 294 293 292 293 294 295 298 300 302 303 305 307 306 307 306 303
256 259 261 262 262 263 264 263 262 265 268 270 274 276 277 278 277 276 273 274 276 280 284 285 288 290 293 295 295 293 293 294 296 298 300 302 304 305 306 306 307 308 306
254 257 260 261 263 264 264 263 261 263 266 270 274 275 277 276 277 273 274 275 277 279 281 282 285 287 288 292 295 295 295 296 297 297 299 300 302 303 304 305 305 307 307
256 257 258 261 262 263 262 263 260 262 265 269 270 272 275 276 277 275 277 277 279 281 281 282 284 285 288 293 296 297 297 296 296 297 298 300 300 301 302 302 302 303 303
256 255 256 258 260 261 262 261 259 261 264 268 268 270 274 275 276 276 277 278 279 279 280 281 283 286 289 291 294 295 296 298 298 298 299 300 300 300 300 301 301 301 301
256 256 256 256 257 260 259 260 262 263 264 266 266 268 271 274 275 275 276 278 277 276 277 280 283 287 288 290 292 295 296 298 298 298 300 302 303 302 300 300 301 303 303
255 256 256 256 256 257 257 257 260 263 264 264 266 268 270 272 274 274 275 275 276 275 276 279 280 283 286 289 291 293 295 296 297 298 299 300 302 302 302 302 303 304 304
Height
5929 5928 5927 5926 5925 5923 5922 5920 5919 5917 5916 5914 5913 5911 5910 5909 5908 5906 5905 5904 5904 5903 5903 5902 5902 5902 5902 5902 5902 5902 5902 5902 5902 5902 5902 5901 5901 5900 5899 5899 5898 5898 5897
5927 5927 5926 5925 5924 5923 5921 5920 5919 5917 5915 5914 5912 5911 5910 5908 5907 5905 5904 5903 5903 5902 5902 5902 5901 5901 5901 5901 5902 5901 5902 5902 5902 5902 5901 5901 5901 5900 5899 5898 5898 5897 5897
5926 5926 5925 5925 5923 5922 5920 5918 5917 5916 5915 5913 5912 5910 5909 5908 5906 5905 5903 5903 5902 5901 5901 5901 5901 5900 5900 5900 5900 5901 5901 5901 5901 5901 5901 5901 5900 5900 5899 5898 5897 5897 5896
5925 5925 5924 5924 5922 5921 5920 5917 5916 5915 5914 5912 5911 5909 5908 5907 5906 5905 5903 5902 5901 5901 5900 5900 5900 5900 5900 5899 5899 5900 5900 5900 5900 5900 5900 5900 5899 5899 5898 5898 5897 5896 5895
5923 5923 5922 5922 5921 5920 5919 5917 5915 5914 5913 5912 5910 5908 5907 5906 5905 5904 5903 5902 5901 5900 5899 5899 5899 5899 5898 5898 5898 5899 5899 5899 5898 5898 5898 5898 5898 5898 5897 5896 5895 5895 5894
5920 5920 5920 5919 5919 5918 5917 5916 5915 5913 5912 5910 5909 5907 5906 5905 5904 5903 5902 5901 5900 5899 5899 5898 5898 5897 5897 5897 5897 5897 5897 5897 5897 5896 5896 5896 5896 5896 5895 5895 5894 5893 5892
5917 5917 5917 5917 5917 5916 5915 5915 5913 5912 5910 5909 5907 5906 5905 5904 5903 5902 5901 5900 5899 5898 5898 5897 5897 5896 5896 5896 5896 5896 5895 5895 5895 5895 5894 5894 5894 5893 5893 5892 5891 5891 5890
5914 5914 5915 5914 5914 5914 5914 5913 5912 5910 5909 5907 5906 5905 5904 5903 5902 5901 5900 5899 5898 5897 5897 5896 5895 5895 5895 5894 5894 5894 5893 5893 5893 5892 5892 5892 5891 5891 5890 5889 5889 5888 5887
5911 5911 5911 5911 5911 5911 5911 5911 5910 5909 5908 5907 5906 5904 5903 5902 5901 5900 5899 5898 5897 5896 5895 5895 5894 5894 5893 5893 5892 5892 5891 5891 5891 5890 5890 5889 5888 5888 5887 5886 5885 5885 5883
5907 5908 5908 5909 5908 5907 5907 5908 5907 5907 5906 5905 5904 5903 5902 5901 5900 5899 5898 5897 5896 5895 5894 5894 5893 5892 5892 5891 5890 5890 5889 5888 5888 5887 5887 5886 5885 5884 5883 5883 5882 5880 5879
5904 5904 5905 5905 5904 5903 5904 5905 5905 5904 5904 5903 5902 5902 5901 5900 5899 5898 5897 5896 5895 5894 5893 5892 5892 5891 5890 5889 5888 5887 5886 5886 5885 5884 5884 5883 5882 5881 5880 5879 5878 5877 5875
5900 5900 5901 5900 5899 5899 5901 5902 5902 5902 5901 5901 5900 5900 5899 5898 5898 5897 5895 5894 5893 5892 5891 5891 5890 5889 5887 5886 5885 5884 5884 5883 5882 5881 5880 5879 5879 5878 5876 5875 5874 5873 5871
5896 5897 5897 5897 5896 5896 5898 5899 5899 5899 5899 5898 5898 5897 5897 5896 5895 5894 5893 5892 5891 5890 5889 5888 5887 5886 5885 5884 5883 5882 5881 5880 5879 5877 5876 5875 5875 5874 5873 5871 5870 5869 5868
5892 5893 5894 5894 5894 5895 5895 5896 5896 5896 5895 5895 5895 5894 5894 5893 5892 5892 5891 5890 5889 5888 5887 5886 5885 5884 5882 5881 5880 5879 5878 5877 5875 5874 5872 5871 5871 5870 5868 5867 5866 5865 5863
5889 5890 5890 5890 5891 5891 5892 5892 5892 5892 5892 5892 5892 5891 5891 5890 5889 5889 5888 5887 5886 5885 5884 5883 5882 5881 5880 5878 5877 5876 5875 5873 5872 5870 5869 5868 5867 5866 5864 5863 5862 5860 5859
5884 5885 5886 5887 5887 5888 5888 5888 5888 5888 5888 5888 5888 5888 5887 5887 5886 5885 5885 5883 5882 5881 5880 5880 5879 5877 5876 5875 5874 5873 5871 5870 5868 5867 5865 5864 5863 5862 5860 5859 5857 5855 5854
5880 5880 5881 5882 5883 5883 5884 5884 5883 5884 5884 5884 5884 5884 5883 5883 5882 5882 5881 5880 5878 5878 5877 5876 5875 5874 5873 5872 5870 5869 5867 5866 5864 5863 5861 5860 5858 5857 5855 5854 5852 5851 5849
5875 5876 5877 5877 5878 5879 5879 5880 5880 5880 5880 5880 5880 5879 5879 5878 5878 5877 5877 5876 5875 5874 5873 5872 5871 5870 5869 5868 5866 5865 5863 5862 5860 5859 5858 5856 5854 5852 5851 5849 5847 5845 5844
5870 5871 5872 5872 5873 5874 5874 5875 5876 5876 5876 5876 5876 5875 5875 5874 5873 5872 5871 5871 5870 5869 5869 5868 5867 5866 5865 5863 5862 5861 5860 5858 5857 5855 5853 5852 5850 5848 5846 5844 5842 5840 5838
5864 5865 5866 5867 5868 5869 5869 5870 5871 5871 5871 5872 5871 5871 5870 5869 5868 5867 5867 5866 5866 5865 5864 5864 5863 5862 5861 5859 5858 5857 5855 5854 5853 5851 5849 5847 5846 5844 5841 5839 5836 5834 5832
5858 5859 5860 5861 5862 5863 5864 5865 5865 5866 5866 5866 5866 5866 5865 5864 5863 5862 5862 5862 5861 5861 5860 5859 5858 5858 5856 5855 5854 5852 5851 5850 5848 5847 5845 5843 5841 5839 5836 5834 5831 5828 5826
5851 5852 5854 5855 5857 5858 5858 5859 5859 5860 5860 5860 5860 5860 5860 5859 5859 5858 5857 5857 5857 5856 5855 5855 5854 5853 5852 5851 5849 5848 5846 5845 5843 5842 5840 5838 5836 5834 5831 5828 5826 5823 5820
5844 5846 5847 5849 5850 5851 5852 5853 5853 5854 5854 5854 5854 5854 5854 5854 5854 5853 5852 5852 5852 5851 5851 5850 5849 5848 5847 5846 5845 5843 5842 5840 5838 5836 5834 5832 5830 5827 5825 5822 5819 5816 5813
5837 5838 5840 5842 5843 5844 5845 5846 5847 5847 5848 5848 5848 5849 5849 5848 5849 5849 5848 5847 5847 5846 5846 5845 5844 5843 5842 5841 5840 5838 5836 5834 5832 5830 5828 5826 5823 5821 5818 5815 5812 5809 5806
5829 5831 5833 5835 5836 5837 5838 5839 5840 5841 5841 5842 5842 5843 5843 5843 5843 5843 5843 5842 5841 5841 5840 5840 5839 5838 5836 5835 5834 5832 5830 5828 5826 5824 5822 5819 5817 5814 5811 5808 5805 5802 5799
5822 5824 5825 5827 5829 5830 5831 5832 5834 5835 5835 5836 5836 5836 5837 5837 5837 5837 5837 5836 5836 5835 5834 5833 5833 5832 5831 5829 5828 5826 5824 5822 5820 5817 5815 5812 5810 5807 5804 5801 5798 5795 5791